Weather History for Belleville, IL

Change the Weather History Date:

Sunday, May 5, 2013

  Actual Average Record
Temperature  
Mean Temperature 53 °F -  
Max Temperature 61 °F 75 °F 93 °F (1952)
Min Temperature 46 °F 48 °F 34 °F (1979)
Degree Days  
Heating Degree Days 12    
Growing Degree Days 3 (Base 50)    
Moisture  
Dew Point 53 °F    
Average Humidity 97    
Maximum Humidity 100    
Minimum Humidity 82    
Precipitation  
Precipitation 0.26 in - - ()
Sea Level Pressure  
Sea Level Pressure 29.92 in    
Wind  
Wind Speed 7 mph (North)    
Max Wind Speed 15 mph    
Max Gust Speed 21 mph    
Visibility 9 miles    
Events Rain    
Averages and records for this station are not official NWS values.
T = Trace of Precipitation, MM = Missing Value Source: NWS Daily Summary

Daily Weather History Graph

Daily Weather History Graph

Search for Another Location

Airport:

Trip Planner

Search our weather history database for the weather conditions in past years. The results will help you decide how hot, cold, wet, or windy it might be!

Date:

Astronomy

May. 05, 2013 Rise Set
Actual Time 5:57 AM CDT 7:55 PM CDT
Civil Twilight 5:28 AM CDT 8:24 PM CDT
Nautical Twilight 4:53 AM CDT 8:59 PM CDT
Astronomical Twilight 4:15 AM CDT 9:37 PM CDT
Moon 3:24 AM CDT (5/5) 3:57 PM CDT (5/5)
Length of Visible Light 14h 55m
Length of Day
13h 57m
Waning Crescent, 18% of the Moon is Illuminated
May 5
Waning Crescent
May 9
New
May 17
First Quarter
May 24
Full
May 31
Last Quarter

Hourly Weather History & Observations

Time (CDT) Temp. Windchill Dew Point Humidity Pressure Visibility Wind Dir Wind Speed Gust Speed Precip Events Conditions
12:58 AM 46.4 °F 45.2 °F 46.2 °F 99% 30.00 in 10.0 mi NW 3.5 mph - N/A   Overcast
1:38 AM 46.4 °F - 46.4 °F 100% 29.99 in 10.0 mi NNE 2.3 mph - N/A   Overcast
1:48 AM 46.4 °F 45.2 °F 46.4 °F 100% 29.98 in 10.0 mi NNE 3.5 mph - N/A   Overcast
1:58 AM 46.9 °F - 46.8 °F 99% 30.00 in 10.0 mi North 4.6 mph - N/A   Mostly Cloudy
2:58 AM 46.9 °F - 46.8 °F 99% 29.99 in 10.0 mi North 5.8 mph - N/A   Overcast
3:09 AM 46.4 °F 42.4 °F 46.4 °F 100% 29.96 in 10.0 mi NNW 8.1 mph - N/A   Light Drizzle
3:26 AM 46.4 °F 42.9 °F 46.4 °F 100% 29.97 in 10.0 mi North 6.9 mph - N/A   Overcast
3:41 AM 46.4 °F 42.4 °F 46.4 °F 100% 29.96 in 10.0 mi NNW 8.1 mph - N/A   Light Drizzle
3:46 AM 46.4 °F 42.9 °F 46.4 °F 100% 29.96 in 10.0 mi NNW 6.9 mph - N/A   Light Drizzle
3:55 AM 46.4 °F 42.9 °F 46.4 °F 100% 29.96 in 10.0 mi NNW 6.9 mph - N/A   Overcast
3:58 AM 46.6 °F - 46.4 °F 99% 29.98 in 10.0 mi NNW 5.8 mph - 0.00 in   Overcast
4:03 AM 46.4 °F 43.5 °F 46.4 °F 100% 29.96 in 10.0 mi NW 5.8 mph - N/A   Overcast
4:53 AM 46.4 °F 42.9 °F 46.4 °F 100% 29.95 in 10.0 mi NW 6.9 mph - N/A   Overcast
4:58 AM 46.9 °F - 46.6 °F 99% 29.96 in 10.0 mi NW 6.9 mph - N/A   Overcast
5:28 AM 46.4 °F 42.4 °F 46.4 °F 100% 29.94 in 10.0 mi NW 8.1 mph - N/A   Overcast
5:48 AM 46.4 °F 42.9 °F 46.4 °F 100% 29.94 in 10.0 mi NW 6.9 mph - N/A   Overcast
5:53 AM 46.4 °F 42.4 °F 46.4 °F 100% 29.94 in 10.0 mi NW 8.1 mph - N/A   Overcast
5:58 AM 47.1 °F - 46.9 °F 99% 29.96 in 10.0 mi NW 8.1 mph - N/A   Overcast
6:03 AM 46.4 °F 42.4 °F 46.4 °F 100% 29.94 in 10.0 mi NW 8.1 mph - N/A   Overcast
6:13 AM 48.2 °F - 46.4 °F 93% 29.95 in 10.0 mi NW 8.1 mph - N/A   Overcast
6:58 AM 48.6 °F - 48.2 °F 99% 29.96 in 10.0 mi NNW 9.2 mph - N/A   Overcast
7:36 AM 50.0 °F - 50.0 °F 100% 29.94 in 8.0 mi NNW 9.2 mph - N/A Rain Light Rain
7:41 AM 50.0 °F - 50.0 °F 100% 29.94 in 5.0 mi NNW 10.4 mph - N/A Rain Light Rain
7:56 AM 50.0 °F - 50.0 °F 100% 29.94 in 6.0 mi North 9.2 mph - N/A Rain Light Rain
7:59 AM 49.8 °F - 49.8 °F 100% 29.96 in 6.0 mi North 9.2 mph - 0.02 in Rain Light Rain
8:04 AM 50.0 °F - 50.0 °F 100% 29.95 in 6.0 mi North 6.9 mph - N/A Rain Light Rain
8:12 AM 50.0 °F - 50.0 °F 100% 29.95 in 9.0 mi North 8.1 mph - N/A   Overcast
8:31 AM 50.0 °F - 50.0 °F 100% 29.95 in 10.0 mi North 9.2 mph - N/A   Light Drizzle
8:46 AM 51.8 °F - 51.8 °F 100% 29.95 in 10.0 mi North 9.2 mph - N/A Rain Light Rain
8:58 AM 52.0 °F - 52.0 °F 100% 29.96 in 10.0 mi North 10.4 mph - 0.00 in Rain Light Rain
9:08 AM 51.8 °F - 51.8 °F 100% 29.95 in 10.0 mi North 10.4 mph - N/A Rain Light Rain
9:33 AM 53.6 °F - 53.6 °F 100% 29.94 in 10.0 mi North 9.2 mph - N/A Rain Light Rain
9:53 AM 53.6 °F - 53.6 °F 100% 29.93 in 10.0 mi North 9.2 mph - N/A Rain Light Rain
9:58 AM 54.3 °F - 54.3 °F 100% 29.94 in 10.0 mi North 8.1 mph - 0.02 in Rain Light Rain
10:13 AM 55.4 °F - 55.4 °F 100% 29.93 in 10.0 mi NNE 10.4 mph - N/A Rain Light Rain
10:58 AM 57.0 °F - 56.8 °F 99% 29.94 in 10.0 mi North 10.4 mph - 0.01 in Rain Light Rain
11:08 AM 57.2 °F - 57.2 °F 100% 29.93 in 10.0 mi North 9.2 mph 19.6 mph N/A   Light Drizzle
11:34 AM 57.2 °F - 57.2 °F 100% 29.92 in 10.0 mi North 10.4 mph 17.3 mph N/A   Overcast
11:54 AM 57.2 °F - 57.2 °F 100% 29.92 in 10.0 mi North 10.4 mph - N/A   Mostly Cloudy
11:58 AM 57.9 °F - 56.3 °F 94% 29.94 in 10.0 mi North 10.4 mph - 0.01 in   Mostly Cloudy
12:03 PM 57.2 °F - 55.4 °F 94% 29.92 in 10.0 mi North 10.4 mph 18.4 mph N/A   Mostly Cloudy
12:08 PM 59.0 °F - 55.4 °F 88% 29.92 in 10.0 mi North 10.4 mph 18.4 mph N/A   Mostly Cloudy
12:43 PM 59.0 °F - 55.4 °F 88% 29.91 in 10.0 mi North 11.5 mph - N/A   Mostly Cloudy
12:48 PM 59.0 °F - 55.4 °F 88% 29.91 in 10.0 mi North 12.7 mph - N/A   Mostly Cloudy
12:58 PM 59.7 °F - 55.4 °F 86% 29.92 in 10.0 mi North 11.5 mph - N/A   Scattered Clouds
1:54 PM 60.8 °F - 55.4 °F 82% 29.89 in 10.0 mi NNW 9.2 mph - N/A Rain Light Rain
1:58 PM 60.4 °F - 55.8 °F 85% 29.90 in 10.0 mi NNW 9.2 mph - 0.00 in Rain Light Rain
2:13 PM 60.8 °F - 55.4 °F 82% 29.89 in 10.0 mi NNW 12.7 mph - N/A Rain Light Rain
2:28 PM 59.0 °F - 57.2 °F 94% 29.89 in 2.5 mi NNW 8.1 mph - N/A Rain Rain
2:33 PM 59.0 °F - 59.0 °F 100% 29.89 in 4.0 mi NNW 9.2 mph - N/A Rain Rain
2:58 PM 58.1 °F - 57.7 °F 99% 29.89 in 5.0 mi North 6.9 mph - 0.08 in Rain Light Rain
3:15 PM 59.0 °F - 57.2 °F 94% 29.88 in 10.0 mi North 11.5 mph - N/A   Mostly Cloudy
3:20 PM 59.0 °F - 57.2 °F 94% 29.88 in 10.0 mi North 12.7 mph 18.4 mph N/A   Mostly Cloudy
3:55 PM 59.0 °F - 57.2 °F 94% 29.87 in 10.0 mi North 6.9 mph - N/A   Mostly Cloudy
3:58 PM 59.7 °F - 56.8 °F 90% 29.88 in 10.0 mi North 8.1 mph - 0.01 in   Mostly Cloudy
4:06 PM 59.0 °F - 57.2 °F 94% 29.87 in 9.0 mi North 9.2 mph - N/A Rain Light Rain
4:22 PM 59.0 °F - 57.2 °F 94% 29.87 in 10.0 mi NNE 8.1 mph - N/A   Mostly Cloudy
4:37 PM 59.0 °F - 57.2 °F 94% 29.88 in 10.0 mi North 5.8 mph - N/A   Mostly Cloudy
4:42 PM 59.0 °F - 57.2 °F 94% 29.87 in 10.0 mi NNE 8.1 mph - N/A   Mostly Cloudy
4:47 PM 60.8 °F - 57.2 °F 88% 29.87 in 10.0 mi North 8.1 mph - N/A   Mostly Cloudy
4:58 PM 60.1 °F - 57.6 °F 91% 29.88 in 10.0 mi North 9.2 mph - 0.00 in   Mostly Cloudy
5:03 PM 59.0 °F - 57.2 °F 94% 29.88 in 10.0 mi NNE 10.4 mph - N/A   Light Drizzle
5:18 PM 59.0 °F - 57.2 °F 94% 29.88 in 5.0 mi NE 8.1 mph - N/A Rain Light Rain
5:23 PM 57.2 °F - 57.2 °F 100% 29.88 in 2.0 mi NNE 15.0 mph 19.6 mph N/A Rain Heavy Rain
5:28 PM 57.2 °F - 57.2 °F 100% 29.88 in 1.8 mi NNE 11.5 mph 20.7 mph N/A Rain Rain
5:33 PM 57.2 °F - 57.2 °F 100% 29.88 in 3.0 mi NNE 12.7 mph 20.7 mph N/A Rain Light Rain
5:38 PM 57.2 °F - 55.4 °F 94% 29.88 in 8.0 mi NE 10.4 mph - N/A Rain Light Rain
5:48 PM 57.2 °F - 55.4 °F 94% 29.89 in 7.0 mi NE 12.7 mph 19.6 mph N/A Rain Light Rain
5:58 PM 56.1 °F - 55.9 °F 99% 29.90 in 7.0 mi ENE 12.7 mph 18.4 mph 0.10 in Rain Light Rain
6:04 PM 55.4 °F - 55.4 °F 100% 29.89 in 10.0 mi NE 9.2 mph 18.4 mph N/A   Overcast
6:14 PM 55.4 °F - 55.4 °F 100% 29.89 in 10.0 mi NE 6.9 mph - N/A   Overcast
6:19 PM 55.4 °F - 55.4 °F 100% 29.89 in 10.0 mi NE 8.1 mph - N/A   Overcast
6:24 PM 55.4 °F - 55.4 °F 100% 29.89 in 10.0 mi NE 9.2 mph - N/A   Overcast
6:39 PM 55.4 °F - 55.4 °F 100% 29.89 in 10.0 mi NNE 8.1 mph - N/A   Overcast
6:49 PM 55.4 °F - 55.4 °F 100% 29.89 in 10.0 mi NE 6.9 mph - N/A   Mostly Cloudy
6:58 PM 56.1 °F - 55.8 °F 99% 29.90 in 10.0 mi NE 8.1 mph - 0.00 in   Mostly Cloudy
7:58 PM 55.8 °F - 55.4 °F 99% 29.91 in 10.0 mi NNE 5.8 mph - N/A   Overcast
8:58 PM 55.4 °F - 55.2 °F 99% 29.93 in 10.0 mi North 5.8 mph - N/A   Overcast
9:08 PM 55.4 °F - 55.4 °F 100% 29.92 in 10.0 mi North 5.8 mph - N/A   Overcast
9:48 PM 55.4 °F - 55.4 °F 100% 29.92 in 10.0 mi North 5.8 mph - N/A   Overcast
9:58 PM 55.6 °F - 55.2 °F 99% 29.93 in 10.0 mi North 5.8 mph - N/A   Overcast
10:58 PM 55.6 °F - 55.2 °F 99% 29.93 in 10.0 mi North 5.8 mph - N/A   Overcast
11:03 PM 55.4 °F - 55.4 °F 100% 29.92 in 10.0 mi North 5.8 mph - N/A   Overcast
11:28 PM 55.4 °F - 55.4 °F 100% 29.91 in 10.0 mi North 4.6 mph - N/A   Light Drizzle
11:37 PM 55.4 °F - 55.4 °F 100% 29.92 in 10.0 mi North 4.6 mph - N/A   Overcast
11:44 PM 55.4 °F - 55.4 °F 100% 29.92 in 9.0 mi NE 5.8 mph - N/A   Light Drizzle
11:49 PM 55.4 °F - 55.4 °F 100% 29.92 in 7.0 mi NE 6.9 mph - N/A   Light Drizzle
11:58 PM 54.9 °F - 54.7 °F 99% 29.93 in 5.0 mi NNE 5.8 mph - 0.01 in Rain Light Rain